User: anonymous   Login
Location: Unspecified
(0.0000°N, 0.0000°E)
Time: 07:45:45
(UTC+00:00)
Language:

Explorer 22 - Orbit

View from above orbital plane
View from above orbital plane
View from above satellite
View from above satellite

Ground track
Ground track

The orbit data is extracted from the following two-line orbital elements,

1   899U 64064A   19078.59380179 +.00000027 +00000-0 +17519-4 0  9999
2   899 079.6904 140.1245 0121658 162.9780 197.5508 13.82091737739281
Epoch (UTC): 19 March 2019 14:15:04
Eccentricity: 0.0121658
inclination: 79.6904°
perigee height: 867 km
apogee height: 1046 km
right ascension of ascending node: 140.1245°
argument of perigee: 162.9780°
revolutions per day: 13.82091737
mean anomaly at epoch: 197.5508°
orbit number at epoch: 73928

The dashed part of the orbit path shows where the satellite is in the earth's shadow,  

DLR